Location: Newark
(45.4422°N, 16.2769°E)
Time: 11:46:26
(UTC+00:00)

S-56A Canister/Altair - Pass Details

Date: 19 December 2019
Orbit: 634 x 2498 km, 38.9° (Epoch: 20 January)

Event Time Altitude Azimuth Distance (km) Brightness Sun altitude
Rises 05:00:49 0° 205° (SSW) 4,556 11.4 -14.9°
Reaches altitude 10° 05:03:59 10° 194° (SSW) 3,840 11.1 -14.4°
Maximum altitude 05:12:43 31° 138° (SE) 3,113 11.3 -13.0°
Drops below altitude 10° 05:23:54 10° 85° (E) 5,000 12.7 -11.1°
Sets 05:28:43 0° 77° (ENE) 6,132 13.1 -10.3°
